Location: Unspecified
(0.0000°N, 1.0000°E)
Time: 02:56:18
(UTC+01:00)

Tiangong - Visible Passes

Search period start: 21 January 2022 00:00
Search period end: 31 January 2022 00:00
Orbit: 383 x 386 km, 41.5° (Epoch: 20 January)

Date Brightness Start Highest point End Pass type
(mag) Time Alt. Az. Time Alt. Az. Time Alt. Az.
22 Jan 2.2 06:16:03 12° NNW 06:18:42 38° NE 06:21:39 10° ESE visible
23 Jan 3.9 05:19:45 14° ENE 05:19:45 14° ENE 05:20:59 10° E visible
24 Jan 1.1 05:55:38 53° W 05:56:08 64° SW 05:59:16 10° SE visible
25 Jan 4.6 04:59:14 12° ESE 04:59:14 12° ESE 04:59:28 10° ESE visible
26 Jan 3.5 05:34:59 16° S 05:34:59 16° S 05:36:00 10° S visible
